GW3458 Weather Reports


Display with metric or nautical units.
time (UTC)temp
F
wind
direction
speed
MPH
gust
MPH
rain 1hr
in
rain 24hr
in
rain mn
in
humidity
%
barometer
mb
20260505235137 54 294 0.0 1.0 0.00 0.04 0.04 50 1010.8
20260505234634 54 300 0.0 1.0 0.00 0.04 0.04 50 1010.6
20260505234130 54 297 0.0 1.0 0.00 0.04 0.04 51 1010.7
20260505233628 54 303 0.0 0.0 0.00 0.04 0.04 51 1010.9
20260505233125 54 301 0.0 0.0 0.00 0.04 0.04 49 1010.9
20260505232623 54 300 0.0 2.0 0.00 0.04 0.04 49 1011.0
20260505232120 54 276 4.0 6.0 0.00 0.04 0.04 48 1011.0
20260505231617 54 291 0.0 2.0 0.00 0.04 0.04 51 1010.7
20260505231116 54 295 0.0 0.0 0.00 0.04 0.04 53 1010.9
20260505230613 54 296 0.0 0.0 0.00 0.04 0.04 55 1010.9
20260505230109 54 299 0.0 0.0 0.00 0.04 0.04 51 1011.0
20260505225606 54 298 0.0 0.0 0.00 0.04 0.04 50 1010.9
20260505225102 54 308 2.0 4.0 0.00 0.04 0.04 48 1010.9
20260505224559 54 298 0.0 2.0 0.00 0.04 0.04 49 1010.8
20260505224056 54 290 0.0 2.0 0.00 0.04 0.04 49 1011.1
20260505223554 54 269 1.0 2.0 0.00 0.04 0.04 50 1011.0
20260505223049 54 283 2.0 2.0 0.00 0.04 0.04 49 1011.1
20260505222546 55 298 0.0 2.0 0.00 0.04 0.04 50 1011.2
20260505222042 55 290 1.0 1.0 0.00 0.04 0.04 50 1011.0
20260505221539 54 298 0.0 0.0 0.00 0.04 0.04 49 1011.0
20260505221036 54 310 2.0 4.0 0.00 0.04 0.04 49 1011.3
20260505220533 54 288 1.0 3.0 0.00 0.04 0.04 48 1011.1
20260505220031 54 289 2.0 3.0 0.00 0.04 0.04 48 1011.2
20260505215529 55 276 2.0 3.0 0.00 0.04 0.04 49 1011.1
20260505215026 54 308 3.0 4.0 0.00 0.04 0.04 46 1011.1
20260505214524 54 296 2.0 2.0 0.00 0.04 0.04 49 1011.3
20260505214021 54 219 2.0 4.0 0.00 0.04 0.04 47 1011.4
20260505213519 55 302 2.0 3.0 0.00 0.04 0.04 49 1011.3
20260505213015 55 301 0.0 7.0 0.00 0.04 0.04 48 1011.2
20260505212511 55 260 2.0 8.0 0.00 0.04 0.04 47 1011.1
20260505212008 55 286 1.0 2.0 0.00 0.04 0.04 46 1011.1
20260505211506 55 297 0.0 1.0 0.00 0.04 0.04 48 1011.2
20260505211002 55 297 0.0 4.0 0.00 0.04 0.04 47 1011.3
20260505210459 55 298 0.0 0.0 0.00 0.04 0.04 48 1011.3
20260505205955 55 267 1.0 3.0 0.00 0.04 0.04 50 1011.3
20260505205454 55 296 1.0 2.0 0.00 0.04 0.04 49 1011.5
20260505204950 56 263 1.0 2.0 0.00 0.04 0.04 53 1011.5
20260505204449 55 309 0.0 0.0 0.00 0.04 0.04 57 1011.8
20260505203946 55 263 3.0 3.0 0.00 0.04 0.04 55 1011.8
20260505203442 56 280 0.0 1.0 0.00 0.04 0.04 57 1011.7
20260505202938 56 284 0.0 2.0 0.00 0.04 0.04 54 1012.0
20260505202435 55 291 2.0 4.0 0.00 0.04 0.04 57 1011.7
20260505201931 55 287 0.0 2.0 0.00 0.04 0.04 56 1011.7
20260505201428 55 277 1.0 3.0 0.00 0.04 0.04 59 1012.1
20260505200926 54 269 2.0 3.0 0.00 0.04 0.04 58 1012.2
20260505200423 54 301 0.0 1.0 0.00 0.04 0.04 60 1012.2
20260505195919 54 298 0.0 1.0 0.00 0.04 0.04 61 1012.3
20260505195416 53 300 0.0 1.0 0.00 0.04 0.04 62 1012.2
20260505194913 53 305 0.0 4.0 0.00 0.04 0.04 60 1012.4
20260505194411 53 180 1.0 3.0 0.00 0.04 0.04 61 1012.2
20260505193911 54 240 2.0 4.0 0.00 0.04 0.04 59 1012.3
20260505193409 54 249 2.0 4.0 0.00 0.04 0.04 58 1012.4
20260505192907 54 289 0.0 3.0 0.00 0.04 0.04 61 1012.3
20260505192404 53 277 2.0 3.0 0.00 0.04 0.04 59 1012.4
20260505191902 53 287 1.0 4.0 0.00 0.04 0.04 59 1012.2
20260505191400 54 292 0.0 0.0 0.00 0.04 0.04 61 1012.5
20260505190857 54 294 0.0 2.0 0.00 0.04 0.04 59 1012.3
20260505190352 53 297 0.0 2.0 0.00 0.04 0.04 60 1012.4
20260505185848 53 283 0.0 0.0 0.00 0.04 0.04 59 1012.4
20260505185345 53 294 0.0 1.0 0.00 0.04 0.04 58 1012.4
20260505184841 53 291 1.0 6.0 0.00 0.04 0.04 57 1012.6
20260505184338 53 284 0.0 3.0 0.00 0.04 0.04 59 1012.6
20260505183835 53 298 0.0 1.0 0.00 0.04 0.04 58 1012.4
20260505183332 53 309 0.0 2.0 0.00 0.04 0.04 58 1012.3
20260505182828 53 298 0.0 0.0 0.00 0.04 0.04 59 1012.4
20260505182325 53 291 0.0 1.0 0.00 0.04 0.04 57 1012.4
20260505181822 53 298 1.0 3.0 0.00 0.04 0.04 56 1012.4
20260505181319 53 298 0.0 3.0 0.00 0.04 0.04 58 1012.5
20260505180816 53 299 2.0 3.0 0.00 0.04 0.04 58 1012.6
20260505180312 53 297 0.0 2.0 0.00 0.04 0.04 57 1012.8
20260505175809 53 274 0.0 3.0 0.00 0.04 0.04 59 1012.7
20260505175306 53 302 2.0 3.0 0.00 0.04 0.04 59 1012.5
20260505174802 53 295 0.0 1.0 0.00 0.04 0.04 60 1013.0
20260505174259 53 308 4.0 4.0 0.00 0.04 0.04 57 1012.8
20260505173755 54 278 1.0 2.0 0.00 0.04 0.04 60 1012.6
20260505173252 54 297 2.0 3.0 0.00 0.04 0.04 57 1012.6
20260505172749 53 245 1.0 2.0 0.00 0.04 0.04 57 1012.6
20260505172246 53 301 3.0 6.0 0.00 0.04 0.04 55 1012.5
20260505171746 53 277 0.0 1.0 0.00 0.04 0.04 56 1012.4
20260505171243 53 301 1.0 3.0 0.00 0.04 0.04 56 1012.5
20260505170740 53 328 5.0 8.0 0.00 0.04 0.04 54 1012.4
20260505170237 53 310 3.0 9.0 0.00 0.04 0.04 56 1012.3
20260505165732 54 274 0.0 6.0 0.00 0.04 0.04 57 1012.2
20260505165228 54 131 2.0 8.0 0.00 0.04 0.04 56 1012.3
20260505164724 54 287 4.0 7.0 0.00 0.04 0.04 58 1012.2
20260505164221 54 298 2.0 3.0 0.00 0.04 0.04 58 1012.1
20260505163719 54 292 2.0 7.0 0.00 0.04 0.04 56 1011.9
20260505163218 53 293 2.0 6.0 0.00 0.04 0.04 57 1011.9
20260505162714 54 300 2.0 4.0 0.00 0.04 0.04 59 1011.9
20260505162211 54 271 3.0 3.0 0.00 0.04 0.04 59 1012.1
20260505161708 53 285 5.0 7.0 0.00 0.04 0.04 60 1012.1
20260505161206 53 289 4.0 6.0 0.00 0.04 0.04 59 1011.9
20260505160703 53 239 4.0 9.0 0.00 0.04 0.04 60 1011.9
20260505160201 53 286 4.0 10.0 0.00 0.04 0.04 59 1011.7
20260505153140 52 291 1.0 4.0 0.00 0.04 0.04 70 1011.4
20260505152637 51 297 2.0 6.0 0.00 0.04 0.04 70 1011.4
20260505152132 51 302 2.0 4.0 0.00 0.04 0.04 71 1011.4
20260505151628 50 289 2.0 7.0 0.00 0.04 0.04 72 1011.3
20260505151126 51 246 0.0 7.0 0.00 0.04 0.04 72 1011.4
20260505150621 51 291 2.0 6.0 0.00 0.04 0.04 73 1011.4
20260505150119 50 300 1.0 8.0 0.00 0.04 0.04 75 1011.2
20260505140547 47 306 3.0 6.0 0.00 0.04 0.04 84 1010.7
20260505125000 46 287 2.0 7.0 0.00 0.04 0.04 85 1011.4
20260505124457 46 295 1.0 4.0 0.05 0.04 0.04 84 1011.3
20260505123953 46 292 0.0 1.0 0.12 0.04 0.04 84 1011.6
20260505123450 47 262 0.0 3.0 0.12 0.03 0.03 82 1011.8
20260505122946 47 298 0.0 3.0 0.05 0.02 0.02 79 1012.0
20260505122443 48 218 3.0 6.0 0.00 0.01 0.01 77 1012.1
20260505121940 48 299 0.0 2.0 0.00 0.01 0.01 75 1012.3
20260505121437 49 300 0.0 3.0 0.07 0.01 0.01 74 1012.2
20260505120933 49 291 0.0 2.0 0.07 0.01 0.01 71 1012.5
20260505120430 50 267 3.0 4.0 0.00 0.00 0.00 69 1012.6
20260505115928 50 304 0.0 7.0 0.00 0.00 0.00 66 1012.4
20260505115425 50 296 0.0 3.0 0.00 0.00 0.00 65 1012.4
20260505114923 50 233 1.0 2.0 0.00 0.00 0.00 67 1012.0
20260505114419 50 294 3.0 4.0 0.00 0.00 0.00 66 1011.4
20260505113916 50 298 2.0 4.0 0.00 0.00 0.00 65 1010.5
20260505113413 50 285 2.0 3.0 0.00 0.00 0.00 66 1010.2
20260505112908 50 297 4.0 7.0 0.00 0.00 0.00 65 1010.0
20260505112406 50 299 0.0 9.0 0.00 0.00 0.00 68 1009.9
20260505111902 50 258 2.0 3.0 0.00 0.00 0.00 66 1009.4
20260505111357 50 299 0.0 0.0 0.00 0.00 0.00 67 1009.9
20260505110853 50 278 0.0 3.0 0.00 0.00 0.00 67 1009.8
20260505110351 51 307 0.0 2.0 0.00 0.00 0.00 66 1010.1
20260505101821 52 296 0.0 1.0 0.00 0.00 0.00 60 1010.0
20260505101316 52 283 0.0 2.0 0.00 0.00 0.00 61 1009.3
20260505100812 52 206 2.0 2.0 0.00 0.00 0.00 61 1009.4
20260505100309 52 186 2.0 3.0 0.00 0.00 0.00 61 1009.4
20260505095804 52 303 1.0 2.0 0.00 0.00 0.00 60 1009.3
20260505095304 52 298 1.0 3.0 0.00 0.00 0.00 61 1009.3
20260505094758 52 300 1.0 1.0 0.00 0.00 0.00 63 1009.2
20260505094255 52 294 1.0 3.0 0.00 0.00 0.00 62 1009.1
20260505093750 52 293 0.0 2.0 0.00 0.00 0.00 61 1008.9
20260505093249 53 294 0.0 4.0 0.00 0.00 0.00 61 1008.9
20260505092745 53 272 4.0 6.0 0.00 0.00 0.00 61 1008.8
20260505092244 53 297 1.0 4.0 0.00 0.00 0.00 62 1009.2
20260505091740 53 268 0.0 1.0 0.00 0.00 0.00 64 1009.2
20260505091239 53 310 4.0 6.0 0.00 0.00 0.00 63 1009.0
20260505090736 53 294 1.0 3.0 0.00 0.00 0.00 62 1009.1
20260505090234 54 306 2.0 8.0 0.00 0.00 0.00 59 1008.9
20260505085731 54 282 4.0 7.0 0.00 0.00 0.00 58 1008.8
20260505085229 54 284 1.0 1.0 0.00 0.00 0.00 59 1008.9
20260505084726 54 180 2.0 6.0 0.00 0.00 0.00 58 1008.8
20260505084225 54 324 4.0 6.0 0.00 0.00 0.00 57 1008.8
20260505083722 54 278 2.0 4.0 0.00 0.00 0.00 57 1008.7
20260505083218 55 302 0.0 1.0 0.00 0.00 0.00 58 1008.7
20260505082715 55 295 2.0 6.0 0.00 0.00 0.00 58 1008.3
20260505082212 55 274 1.0 4.0 0.00 0.00 0.00 57 1008.4
20260505081707 55 295 0.0 2.0 0.00 0.00 0.00 57 1008.6
20260505081205 55 171 1.0 7.0 0.00 0.00 0.00 55 1008.2
20260505080702 55 282 4.0 7.0 0.00 0.00 0.00 56 1008.2
20260505080158 55 255 1.0 9.0 0.00 0.00 0.00 56 1007.6
20260505075654 55 238 5.0 8.0 0.00 0.00 0.00 56 1007.6
20260505075151 55 289 0.0 4.0 0.00 0.00 0.00 57 1007.3
20260505074648 55 302 0.0 3.0 0.00 0.00 0.00 59 1007.2
20260505074145 55 284 0.0 2.0 0.00 0.00 0.00 58 1007.2
20260505073643 55 250 0.0 0.0 0.00 0.00 0.00 61 1007.0
20260505073140 55 291 0.0 2.0 0.00 0.00 0.00 61 1007.0
20260505072636 55 301 1.0 4.0 0.00 0.00 0.00 61 1007.0
20260505072132 55 297 0.0 2.0 0.00 0.00 0.00 62 1006.9
20260505071628 55 293 0.0 0.0 0.00 0.00 0.00 63 1006.9
20260505071126 56 297 0.0 1.0 0.00 0.00 0.00 61 1006.5
20260505070623 56 282 0.0 1.0 0.00 0.00 0.00 62 1006.8
20260505070119 56 255 1.0 3.0 0.00 0.00 0.00 61 1006.7
20260505065615 56 284 3.0 3.0 0.00 0.00 0.00 62 1006.3
20260505065112 56 293 0.0 0.0 0.00 0.00 0.00 63 1006.4
20260505064609 57 299 0.0 0.0 0.00 0.00 0.00 62 1006.6
20260505064108 57 296 1.0 2.0 0.00 0.00 0.00 64 1006.5
20260505063604 57 276 1.0 3.0 0.00 0.00 0.00 68 1006.3
20260505063100 57 295 0.0 2.0 0.00 0.00 0.00 69 1006.3
20260505062557 57 281 0.0 2.0 0.00 0.00 0.00 71 1006.3
20260505062054 57 292 0.0 1.0 0.00 0.00 0.00 75 1006.3
20260505061552 57 287 0.0 2.0 0.00 0.00 0.00 75 1006.0
20260505061049 57 287 1.0 3.0 0.00 0.00 0.00 72 1005.8
20260505060547 58 289 1.0 2.0 0.00 0.00 0.00 73 1005.9
20260505060044 58 295 0.0 7.0 0.00 0.00 0.00 73 1005.5
20260505055538 58 305 2.0 2.0 0.00 0.00 0.00 71 1005.6
20260505055036 58 292 0.0 0.0 0.00 0.00 0.00 74 1005.6
20260505054533 58 313 1.0 3.0 0.00 0.00 0.00 74 1005.4
20260505054031 58 274 2.0 3.0 0.00 0.00 0.00 73 1005.6
20260505053528 58 282 1.0 2.0 0.00 0.00 0.00 75 1005.5
20260505053024 58 278 0.0 2.0 0.00 0.00 0.00 78 1005.6
20260505052521 59 296 1.0 3.0 0.00 0.00 0.00 77 1005.1
20260505052019 59 286 1.0 3.0 0.00 0.00 0.00 78 1005.1
20260505051515 59 288 3.0 3.0 0.00 0.00 0.00 79 1005.2
20260505051014 59 302 0.0 2.0 0.00 0.00 0.00 80 1005.0
20260505050512 59 299 0.0 1.0 0.00 0.00 0.00 80 1004.9
20260505041439 61 287 0.0 3.0 0.00 0.05 0.05 82 1004.4
20260505040937 61 287 1.0 2.0 0.00 0.05 0.05 82 1004.1
20260505040434 62 297 0.0 3.0 0.00 0.05 0.05 82 1003.9
20260505035931 62 297 1.0 3.0 0.00 0.05 0.05 80 1003.9
20260505035426 62 284 1.0 7.0 0.00 0.05 0.05 80 1003.7
20260505034924 62 302 0.0 3.0 0.00 0.05 0.05 82 1003.4
20260505034420 61 295 0.0 3.0 0.00 0.05 0.05 82 1003.0
20260505033917 61 298 0.0 2.0 0.00 0.05 0.05 82 1003.0
20260505033414 61 299 0.0 2.0 0.00 0.05 0.05 80 1002.9
20260505032912 60 282 0.0 2.0 0.00 0.05 0.05 85 1003.2
20260505032409 60 301 0.0 0.0 0.00 0.05 0.05 89 1003.5
20260505031906 61 313 0.0 1.0 0.00 0.05 0.05 87 1003.1
20260505031403 60 301 0.0 0.0 0.00 0.05 0.05 85 1003.3
20260505030859 60 281 0.0 1.0 0.00 0.05 0.05 86 1003.5
20260505030355 61 336 1.0 2.0 0.00 0.05 0.05 86 1003.2
20260505025851 62 293 1.0 2.0 0.00 0.05 0.05 82 1003.6
20260505025349 62 251 3.0 4.0 0.07 0.05 0.05 80 1003.7
20260505024848 62 216 4.0 8.0 0.07 0.05 0.05 79 1003.7
20260505024345 61 283 6.0 11.0 0.05 0.04 0.04 79 1003.9
20260505023842 61 329 2.0 4.0 0.12 0.03 0.03 84 1003.8
20260505023338 62 283 1.0 3.0 0.12 0.02 0.02 81 1003.7
20260505022835 64 218 2.0 9.0 0.07 0.01 0.01 75 1004.1
20260505022332 65 212 6.0 13.0 0.00 0.00 0.00 64 1004.0
20260505021830 66 285 1.0 4.0 0.00 0.00 0.00 61 1003.5
20260505021326 66 314 1.0 4.0 0.00 0.00 0.00 60 1003.1
20260505020822 66 317 3.0 4.0 0.00 0.00 0.00 62 1003.4
20260505020318 66 277 4.0 7.0 0.00 0.00 0.00 59 1003.0
20260505015815 67 173 3.0 7.0 0.00 0.00 0.00 59 1002.9
20260505015312 67 178 4.0 6.0 0.00 0.00 0.00 57 1002.9
20260505014809 67 293 2.0 9.0 0.00 0.00 0.00 56 1003.1
20260505014307 68 160 1.0 13.0 0.00 0.00 0.00 54 1003.1
20260505013802 68 228 3.0 14.0 0.00 0.00 0.00 54 1003.0
20260505013300 71 299 6.0 14.0 0.00 0.00 0.00 51 1003.0
20260505012758 73 257 3.0 11.0 0.00 0.00 0.00 55 1003.3
20260505012255 73 293 1.0 7.0 0.00 0.00 0.00 61 1002.6
20260505011751 73 285 0.0 7.0 0.00 0.00 0.00 60 1002.3
20260505011248 74 55 3.0 3.0 0.00 0.00 0.00 59 1002.2
20260505010744 74 198 3.0 6.0 0.00 0.00 0.00 58 1002.0
20260505010240 74 41 2.0 8.0 0.00 0.00 0.00 58 1001.8
20260505005737 74 262 2.0 3.0 0.00 0.00 0.00 58 1001.9
20260505005234 74 132 4.0 10.0 0.00 0.00 0.00 57 1001.6
20260505004731 74 297 0.0 4.0 0.00 0.00 0.00 57 1001.7
20260505004227 74 310 1.0 7.0 0.00 0.00 0.00 57 1001.7
20260505003724 74 236 5.0 8.0 0.00 0.00 0.00 57 1001.5
20260505003223 74 49 5.0 8.0 0.00 0.00 0.00 57 1001.1
20260505002718 75 139 4.0 7.0 0.00 0.00 0.00 56 1001.2
20260505002216 75 164 2.0 10.0 0.00 0.00 0.00 55 1001.1
20260505001714 75 278 0.0 6.0 0.00 0.00 0.00 53 1001.0
20260505001211 76 180 3.0 8.0 0.00 0.00 0.00 52 1001.1
20260505000708 76 168 3.0 10.0 0.00 0.00 0.00 52 1000.9
20260505000206 76 295 1.0 6.0 0.00 0.00 0.00 53 1001.1
20260504235702 76 45 4.0 9.0 0.00 0.00 0.00 52 1001.4
20260504235158 76 94 6.0 10.0 0.00 0.00 0.00 52 1001.2